Flag for United Arab Emirates Weather past 2 weeks in Ras al-Khaimah, Ras al-Khaimah, United Arab Emirates

Now
93 °F

Sunny.


Feels Like: 90 °F
Forecast: 62 / 94 °F
Wind: 14 mph from Southwest

Location: Ras Al Khaimah International Airport


UV Index: 7 (High)

Visibility: 10 mi


Pressure: 29.77 "Hg

Humidity: 23%

Dew point: 50 °F

Location of Ras al-KhaimahLocation

Historic Weather in Ras al-Khaimah

°F

Ras al-Khaimah temperature yesterday

Maximum temperature yesterday: 102 °F (at 12:00 PM)
Minimum temperature yesterday: 68 °F (at 6:00 AM)
Average temperature yesterday: 85 °F

Past Weeks' High & Low Weather Summary

 TemperatureHumidityPressure
High106 °F (Apr 16, 2:00 PM)94% (Apr 7, 6:00 AM)30.07 "Hg (Apr 7, 6:00 AM)
Low57 °F (Apr 14, 4:00 AM)4% (Apr 11, 11:00 AM)29.68 "Hg (Apr 16, 3:00 PM)
Average82 °F41%29.87 "Hg
* Reported Apr 5 11:00 AM — Apr 20 11:00 AM, Ras al-Khaimah, Weather by CustomWeather, © 2014

Note: Actual official high and low records may vary slightly from our data, if they occured in-between our weather recording intervals... More about our weather records

Advertising

Historic Weather Conditions — Data for Previous 24 hours

 ConditionsComfort  
Time TempWeatherWind HumidityBarometerVisibility
11:00 AM
Apr 20
93 °FSunny.14 mph23%29.77 "Hg10 mi
10:00 AM91 °FSunny.9 mph28%29.77 "Hg10 mi
9:00 AM88 °FSunny.15 mph33%29.77 "Hg10 mi
8:00 AM82 °FSunny.13 mph42%29.77 "Hg10 mi
7:00 AM79 °FSunny.12 mph45%29.77 "Hg10 mi
6:00 AM77 °FSunny.12 mph44%29.74 "Hg10 mi
5:00 AM77 °FClear.12 mph44%29.74 "Hg10 mi
4:00 AM77 °FClear.10 mph44%29.74 "Hg10 mi
3:00 AM79 °FClear.8 mph42%29.77 "Hg10 mi
2:00 AM79 °FClear.7 mph48%29.77 "Hg10 mi
1:00 AM79 °FClear.6 mph45%29.77 "Hg10 mi
12:00 AM81 °FClear.6 mph45%29.80 "Hg10 mi
11:00 PM
Apr 19
81 °FClear.7 mph54%29.80 "Hg10 mi
10:00 PM82 °FClear.3 mph55%29.83 "Hg10 mi
9:00 PM82 °FClear.8 mph58%29.83 "Hg10 mi
8:00 PM86 °FClear.9 mph38%29.80 "Hg10 mi
7:00 PM90 °FClear.3 mph26%29.77 "Hg10 mi
6:00 PM95 °FSunny.7 mph20%29.77 "Hg10 mi
5:00 PM97 °FSunny.8 mph19%29.77 "Hg10 mi
4:00 PM97 °FSunny.8 mph22%29.77 "Hg10 mi
3:00 PM95 °FSunny.12 mph28%29.80 "Hg10 mi
2:00 PM95 °FClear.15 mph28%29.80 "Hg4 mi
1:00 PM99 °FClear.18 mph25%29.80 "Hg5 mi
12:00 PM102 °FSunny.6 mph17%29.83 "Hg10 mi
11:00 AM100 °FSunny.5 mph15%29.83 "Hg10 mi
Weather by CustomWeather, © 2014

See weather overview